This is the latest recevied weather packets stored in our database for station/object W8MAL. If no packets are shown the sender has not sent any weather packets the latest 1 day(s).
| Time | Temp. | Humidity | Pressure | Rain* | Wind** | Luminosity | Snow |
|---|---|---|---|---|---|---|---|
| 1778089473 | 13.89° C | 50% | 1011.6 hPa | 0 mm | - | 287 W/m² | - |
| 1778086445 | 13.33° C | 46% | 1012 hPa | 0 mm | - | 304 W/m² | - |
| 1778086141 | 12.78° C | 56% | 1012 hPa | 0 mm | - | 196 W/m² | - |
| 1778085536 | 12.78° C | 51% | 1012 hPa | 0 mm | - | 308 W/m² | - |
| 1778084925 | 12.78° C | 56% | 1011.6 hPa | 0 mm | - | 329 W/m² | - |
| 1778084321 | 12.22° C | 50% | 1011.6 hPa | 0 mm | - | 75 W/m² | - |
| 1778084018 | 12.22° C | 50% | 1011.6 hPa | 0 mm | - | 608 W/m² | - |
| 1778083412 | 12.22° C | 52% | 1011.6 hPa | 0 mm | - | 299 W/m² | - |
| 1778083111 | 12.22° C | 54% | 1011.6 hPa | 0 mm | - | 450 W/m² | - |
| 1778079862 | 11.67° C | 62% | 1011 hPa | 0 mm | - | 201 W/m² | - |
| 1778079255 | 11.11° C | 59% | 1011 hPa | 0 mm | - | 234 W/m² | - |
| 1778078953 | 11.67° C | 60% | 1011 hPa | 0 mm | - | 135 W/m² | - |
| 1778078649 | 11.11° C | 60% | 1010.6 hPa | 0 mm | - | 110 W/m² | - |
| 1778078348 | 11.11° C | 59% | 1010.6 hPa | 0 mm | - | 243 W/m² | - |
| 1778077743 | 11.11° C | 69% | 1010.6 hPa | 0 mm | - | 115 W/m² | - |
| 1778077441 | 11.11° C | 68% | 1010.6 hPa | 0 mm | - | 295 W/m² | - |
| 1778076836 | 10.56° C | 70% | 1010.2 hPa | 0 mm | - | 151 W/m² | - |
| 1778075928 | 10° C | 73% | 1010.6 hPa | 0 mm | - | 93 W/m² | - |
| 1778073503 | 9.44° C | 80% | 1010.2 hPa | 0 mm | - | 70 W/m² | - |
| 1778072291 | 8.33° C | 84% | 1009.5 hPa | 0 mm | - | 91 W/m² | - |
| 1778070780 | 7.78° C | 93% | 1009.9 hPa | 0 mm | - | 243 W/m² | - |
| 1778070476 | 7.78° C | 93% | 1009.5 hPa | 0 mm | - | 43 W/m² | - |
| 1778069568 | 7.78° C | 95% | 1009.2 hPa | 0 mm | - | 35 W/m² | - |
| 1778068056 | 7.22° C | 97% | 1009.2 hPa | 0 mm | - | 26 W/m² | - |
| 1778067452 | 6.67° C | 97% | 1009.2 hPa | 0 mm | - | 25 W/m² | - |
* Rain latest hour (hover to see other rain measurements)
** Current wind speed in m/s (hover to see current wind gust speed)